Hourly Data Report for August 18, 2019

QUALICUM BEACH AIRPORT
BRITISH COLUMBIA
Current Station Operator: ECCC - MSC

49°20'14.000" N
124°23'38.000" W
58.20 m
1026562
71766
VOQ

Download Data

Hourly Data (August 2019)
Hourly Data Report for August 18, 2019
TIME
LST
Temp Definition
°C
Dew Point Definition
°C
Rel Hum Definition
%
Precip. Amount Definition
mm

Wind Dir Definition
10's deg

Wind Spd Definition
km/h
Visibility Definition
km
Stn Press Definition
kPa
Hmdx Definition


Wind Chill Definition


Weather Definition


00:00 15.4 12.9 85 0.0 23 3   100.51     LegendNANA
01:00 15.8 13.2 85 0.0 25 3   100.48     LegendNANA
02:00 14.2 12.3 89 0.0 25 2   100.47     LegendNANA
03:00 16.1 12.7 81 0.0 24 5   100.42     LegendNANA
04:00 14.6 12.9 90 0.0 25 4   100.39     LegendNANA
05:00 14.6 12.7 89 0.0 0 1   100.38     LegendNANA
06:00 15.2 12.8 86 0.0 17 4   100.37     LegendNANA
07:00 16.4 13.2 82 0.0   0   100.35     LegendNANA
08:00 18.7 13.0 69 0.0 12 1   100.35     LegendNANA
09:00 19.0 14.8 77 0.0 9 8   100.35     LegendNANA
10:00 19.4 15.4 78 0.0 8 7   100.37     LegendNANA
11:00 19.1 15.2 78 0.0 10 11   100.39     LegendNANA
12:00 19.8 14.7 72 0.0 8 10   100.36     LegendNANA
13:00 19.5 15.0 75 0.0 9 11   100.37     LegendNANA
14:00 19.3 14.8 75 0.0 10 14   100.37     LegendNANA
15:00 20.5 15.0 71 0.0 10 12   100.32     LegendNANA
16:00 20.2 14.2 68 0.0 9 15   100.31     LegendNANA
17:00 21.2 14.4 65 0.0 10 10   100.28 25   LegendNANA
18:00 20.0 14.0 69 0.0 10 7   100.28     LegendNANA
19:00 21.1 14.2 65 0.0 5 1   100.27 25   LegendNANA
20:00 18.4 12.6 69 0.0 31 8   100.32     LegendNANA
21:00 16.8 12.7 77 0.0 31 3   100.34     LegendNANA
22:00 15.5 12.7 83 0.0 28 1   100.37     LegendNANA
23:00 14.3 12.6 89 0.0 28 2   100.40     LegendNANA

Notes on Data Quality.

Legend

  • E = Estimated
  • M = Missing
  • NA = Not Available*
  • [empty] = Indicates an unobserved value
Date modified: